User: anonymous   Login
Location: Unspecified
(0.0000°N, 0.0000°E)
Time: 07:13:29
(UTC+00:00)
Language:

SBIRS GEO 1 (USA 230) - Orbit

View from above orbital plane
View from above orbital plane
View from above satellite
View from above satellite

Ground track
Ground track

The orbit data is extracted from the following two-line orbital elements,

1 37481U 11019A   14001.00000000 0.00000000  00000-0  00000-0 0    04
2 37481   5.2718 320.6568 0002141 322.8148 270.9171  1.00270000    01
Epoch (UTC): 01 January 2014 00:00:00
Eccentricity: 0.0002141
inclination: 5.2718°
perigee height: 35777 km
apogee height: 35796 km
right ascension of ascending node: 320.6568°
argument of perigee: 322.8148°
revolutions per day: 1.00270000
mean anomaly at epoch: 270.9171°
orbit number at epoch: 0

The dashed part of the orbit path shows where the satellite is in the earth's shadow,  

DLR